EW6246 Weather Reports


Display with metric or nautical units.
time (UTC)temp
F
wind
direction
speed
MPH
gust
MPH
rain 1hr
in
rain 24hr
in
rain mn
in
humidity
%
barometer
mb
20260508182316 79 18 2.0 5.0 0.00 0.01 0.01 74 1016.5
20260508181811 79 213 2.0 5.0 0.00 0.01 0.01 74 1016.5
20260508181308 81 298 2.0 3.0 0.00 0.01 0.01 72 1016.6
20260508180759 80 337 2.0 2.0 0.00 0.01 0.01 73 1016.3
20260508180256 78 332 2.0 2.0 0.00 0.01 0.01 74 1016.4
20260508175752 79 109 1.0 2.0 0.00 0.01 0.01 74 1016.6
20260508175249 80 2 2.0 2.0 0.00 0.01 0.01 73 1016.5
20260508174747 81 29 2.0 3.0 0.00 0.01 0.01 71 1016.6
20260508174244 80 291 0.0 1.0 0.00 0.01 0.01 72 1016.7
20260508173741 80 266 2.0 2.0 0.00 0.01 0.01 70 1016.9
20260508173236 78 307 1.0 2.0 0.00 0.01 0.01 74 1016.9
20260508172733 77 227 0.0 1.0 0.00 0.01 0.01 75 1017.0
20260508172231 77 113 5.0 7.0 0.00 0.01 0.01 74 1017.2
20260508171727 79 145 2.0 3.0 0.00 0.01 0.01 73 1016.9
20260508171223 78 278 2.0 2.0 0.00 0.01 0.01 74 1017.2
20260508170720 79 276 1.0 2.0 0.00 0.01 0.01 74 1017.2
20260508170218 80 182 2.0 2.0 0.00 0.01 0.01 72 1017.4
20260508165715 82 109 3.0 3.0 0.00 0.01 0.01 68 1017.3
20260508165212 80 318 3.0 3.0 0.00 0.01 0.01 71 1017.3
20260508164708 81 216 2.0 2.0 0.00 0.01 0.01 72 1017.4
20260508164205 79 33 2.0 2.0 0.00 0.01 0.01 72 1017.4
20260508163703 79 319 3.0 5.0 0.00 0.01 0.01 73 1017.4
20260508163200 79 293 2.0 3.0 0.00 0.01 0.01 72 1017.6
20260508162655 82 335 4.0 6.0 0.00 0.01 0.01 70 1017.5
20260508162153 80 291 1.0 1.0 0.00 0.01 0.01 72 1017.6
20260508161650 81 59 3.0 6.0 0.00 0.01 0.01 69 1017.5
20260508161147 81 53 4.0 6.0 0.00 0.01 0.01 67 1017.7
20260508160645 79 302 1.0 1.0 0.00 0.01 0.01 69 1017.8
20260508160143 80 331 1.0 1.0 0.00 0.01 0.01 71 1017.8
20260508155640 79 339 2.0 3.0 0.00 0.01 0.01 70 1017.7
20260508155136 79 272 0.0 1.0 0.00 0.01 0.01 68 1017.8
20260508154634 80 322 0.0 1.0 0.00 0.01 0.01 68 1017.7
20260508154130 81 7 3.0 3.0 0.00 0.01 0.01 68 1017.6
20260508153627 81 322 1.0 1.0 0.00 0.01 0.01 69 1018.0
20260508153124 79 286 1.0 1.0 0.00 0.01 0.01 66 1017.9
20260508152620 79 40 3.0 3.0 0.00 0.01 0.01 67 1017.9
20260508152115 80 261 2.0 2.0 0.00 0.01 0.01 63 1017.8
20260508151613 81 8 2.0 2.0 0.00 0.01 0.01 65 1017.9
20260508151109 81 307 1.0 1.0 0.00 0.01 0.01 62 1018.0
20260508150606 82 304 2.0 3.0 0.00 0.01 0.01 68 1018.1
20260508145554 81 353 1.0 1.0 0.00 0.01 0.01 60 1018.2
20260508145050 81 286 0.0 0.0 0.00 0.01 0.01 63 1018.0
20260508144548 80 314 1.0 1.0 0.00 0.01 0.01 61 1018.2
20260508144045 81 274 3.0 3.0 0.00 0.01 0.01 60 1018.0
20260508143543 82 297 1.0 1.0 0.00 0.01 0.01 61 1018.0
20260508143039 81 12 1.0 1.0 0.00 0.01 0.01 59 1018.3
20260508142536 81 314 0.0 1.0 0.00 0.01 0.01 62 1018.3
20260508142032 80 332 0.0 0.0 0.00 0.01 0.01 61 1018.2
20260508141529 80 23 2.0 2.0 0.00 0.01 0.01 63 1018.2
20260508141027 80 297 0.0 1.0 0.00 0.01 0.01 65 1018.4
20260508140524 80 300 0.0 1.0 0.00 0.01 0.01 62 1018.3
20260508140020 80 305 0.0 0.0 0.00 0.01 0.01 61 1018.4
20260508135516 80 290 1.0 1.0 0.00 0.01 0.01 65 1018.3
20260508135012 79 302 0.0 0.0 0.00 0.01 0.01 61 1018.4
20260508134509 79 349 3.0 3.0 0.00 0.01 0.01 65 1018.3
20260508134006 79 316 1.0 1.0 0.00 0.01 0.01 62 1018.3
20260508133503 79 317 1.0 1.0 0.00 0.01 0.01 62 1018.3
20260508133000 79 291 0.0 1.0 0.00 0.01 0.01 65 1018.2
20260508132458 79 291 1.0 1.0 0.00 0.01 0.01 63 1018.1
20260508131954 78 297 1.0 1.0 0.00 0.01 0.01 69 1018.2
20260508131450 78 296 0.0 1.0 0.00 0.01 0.01 65 1018.2
20260508130947 78 272 0.0 1.0 0.00 0.01 0.01 65 1018.1
20260508130444 77 292 0.0 1.0 0.00 0.01 0.01 67 1018.1
20260508125939 77 290 0.0 1.0 0.00 0.01 0.01 72 1018.2
20260508125436 75 296 0.0 0.0 0.00 0.01 0.01 72 1018.2
20260508124934 75 281 0.0 0.0 0.00 0.01 0.01 73 1018.4
20260508124431 76 295 0.0 1.0 0.00 0.01 0.01 73 1018.3
20260508123929 75 295 0.0 1.0 0.00 0.01 0.01 76 1018.2
20260508123427 75 289 0.0 0.0 0.00 0.01 0.01 79 1018.2
20260508122923 76 264 1.0 1.0 0.00 0.01 0.01 75 1018.0
20260508122420 76 295 0.0 0.0 0.00 0.01 0.01 76 1018.0
20260508121917 77 288 1.0 1.0 0.00 0.01 0.01 73 1017.9
20260508121415 74 287 0.0 0.0 0.00 0.01 0.01 77 1018.1
20260508120913 75 307 0.0 0.0 0.00 0.01 0.01 76 1018.0
20260508120410 75 307 0.0 0.0 0.00 0.01 0.01 74 1017.9
20260508115908 75 308 0.0 0.0 0.00 0.01 0.01 71 1018.2
20260508115406 75 308 0.0 0.0 0.00 0.01 0.01 73 1018.1
20260508114902 74 308 0.0 0.0 0.00 0.01 0.01 72 1017.9
20260508114359 73 308 0.0 0.0 0.00 0.01 0.01 82 1018.1
20260508113855 72 308 0.0 0.0 0.00 0.01 0.01 82 1018.0
20260508113353 73 308 0.0 0.0 0.00 0.01 0.01 82 1018.2
20260508112850 70 308 0.0 0.0 0.00 0.01 0.01 86 1017.9
20260508112347 69 308 0.0 0.0 0.00 0.01 0.01 87 1017.8
20260508111843 68 309 0.0 0.0 0.00 0.01 0.01 89 1017.8
20260508111340 67 310 0.0 0.0 0.00 0.01 0.01 91 1017.8
20260508110838 66 310 0.0 0.0 0.00 0.01 0.01 91 1017.7
20260508110335 65 310 0.0 0.0 0.00 0.01 0.01 94 1017.7
20260508105835 64 311 0.0 0.0 0.07 0.01 0.01 94 1017.8
20260508105332 63 311 0.0 0.0 0.07 0.01 0.01 97 1017.9
20260508104829 62 313 0.0 1.0 0.00 0.00 0.00 97 1017.9
20260508104326 62 309 0.0 0.0 0.00 0.00 0.00 98 1017.9
20260508103823 61 310 1.0 1.0 0.00 0.00 0.00 98 1017.7
20260508103320 61 309 0.0 1.0 0.00 0.00 0.00 98 1017.6
20260508102818 61 311 0.0 0.0 0.00 0.00 0.00 98 1017.5
20260508102315 61 311 0.0 0.0 0.00 0.00 0.00 98 1017.5
20260508101812 60 313 0.0 0.0 0.00 0.00 0.00 99 1017.6
20260508101310 60 314 0.0 0.0 0.00 0.00 0.00 99 1017.4
20260508100807 60 313 0.0 1.0 0.00 0.00 0.00 99 1017.5
20260508100306 60 313 1.0 1.0 0.00 0.00 0.00 99 1017.4
20260508095801 61 312 0.0 0.0 0.00 0.00 0.00 99 1017.4
20260508095259 61 314 0.0 0.0 0.00 0.00 0.00 99 1017.4
20260508094755 61 308 0.0 0.0 0.00 0.00 0.00 99 1017.2
20260508094253 61 313 0.0 0.0 0.00 0.00 0.00 99 1017.1
20260508093749 61 313 0.0 0.0 0.00 0.00 0.00 99 1017.2
20260508093247 61 314 0.0 0.0 0.00 0.00 0.00 99 1017.2
20260508092744 61 314 0.0 0.0 0.00 0.00 0.00 99 1017.1
20260508092242 61 310 1.0 1.0 0.00 0.00 0.00 99 1017.2
20260508091740 61 308 1.0 1.0 0.00 0.00 0.00 99 1017.2
20260508091236 61 309 0.0 0.0 0.00 0.00 0.00 99 1017.2
20260508090734 61 314 0.0 0.0 0.00 0.00 0.00 99 1017.1
20260508090232 62 312 0.0 0.0 0.00 0.00 0.00 99 1017.1
20260508085727 62 313 0.0 0.0 0.00 0.00 0.00 99 1017.0
20260508085225 62 316 0.0 0.0 0.00 0.00 0.00 99 1017.3
20260508084720 62 313 0.0 0.0 0.00 0.00 0.00 99 1017.0
20260508084218 62 313 0.0 0.0 0.00 0.00 0.00 99 1017.1
20260508083716 62 315 0.0 0.0 0.00 0.00 0.00 99 1017.2
20260508083213 62 314 0.0 0.0 0.00 0.00 0.00 99 1016.7
20260508082708 62 315 0.0 0.0 0.00 0.00 0.00 99 1016.7
20260508082206 62 316 0.0 0.0 0.00 0.00 0.00 99 1017.0
20260508081703 62 315 0.0 0.0 0.00 0.00 0.00 99 1017.0
20260508081159 62 316 0.0 0.0 0.00 0.00 0.00 99 1017.2
20260508080657 62 315 0.0 0.0 0.00 0.00 0.00 99 1016.9
20260508080155 62 315 0.0 0.0 0.00 0.00 0.00 99 1016.9
20260508075651 62 312 0.0 0.0 0.00 0.00 0.00 99 1016.9
20260508075148 62 314 0.0 0.0 0.00 0.00 0.00 99 1016.9
20260508074646 62 313 0.0 0.0 0.00 0.00 0.00 99 1016.7
20260508074143 63 314 0.0 0.0 0.00 0.00 0.00 99 1016.7
20260508073639 63 315 0.0 0.0 0.00 0.00 0.00 99 1016.7
20260508073137 63 316 0.0 0.0 0.00 0.00 0.00 99 1016.9
20260508072633 63 314 0.0 0.0 0.00 0.00 0.00 99 1017.0
20260508072130 63 313 0.0 0.0 0.00 0.00 0.00 99 1016.9
20260508071628 63 315 0.0 0.0 0.00 0.00 0.00 99 1016.7
20260508071126 63 318 0.0 0.0 0.00 0.00 0.00 99 1017.0
20260508070623 63 314 0.0 0.0 0.00 0.00 0.00 99 1016.9
20260508070122 63 314 0.0 0.0 0.00 0.00 0.00 99 1017.0
20260508065618 63 314 0.0 0.0 0.00 0.00 0.00 99 1017.2
20260508065116 63 314 0.0 0.0 0.00 0.00 0.00 99 1017.1
20260508064614 63 314 0.0 0.0 0.00 0.00 0.00 99 1017.1
20260508064111 63 314 0.0 0.0 0.00 0.00 0.00 99 1017.2
20260508063608 63 314 0.0 0.0 0.00 0.00 0.00 99 1017.2
20260508063106 64 314 0.0 0.0 0.00 0.00 0.00 99 1017.1
20260508062558 64 314 0.0 0.0 0.00 0.00 0.00 99 1017.2
20260508062054 64 314 0.0 0.0 0.00 0.00 0.00 99 1017.3
20260508061552 64 314 0.0 0.0 0.00 0.00 0.00 99 1017.3
20260508061049 64 314 0.0 0.0 0.00 0.00 0.00 99 1017.4
20260508060546 64 314 0.0 0.0 0.00 0.00 0.00 99 1017.5
20260508060043 64 314 0.0 0.0 0.00 0.00 0.00 99 1017.5
20260508055539 64 314 0.0 0.0 0.00 0.00 0.00 99 1017.3
20260508055036 64 314 0.0 0.0 0.00 0.00 0.00 99 1017.8
20260508054532 64 314 0.0 0.0 0.00 0.00 0.00 99 1017.7
20260508054030 64 314 0.0 0.0 0.00 0.00 0.00 99 1018.0
20260508053526 64 315 0.0 0.0 0.00 0.00 0.00 99 1017.9
20260508053025 65 315 0.0 0.0 0.00 0.00 0.00 99 1018.1
20260508052521 65 316 0.0 0.0 0.00 0.00 0.00 99 1018.0
20260508052018 65 316 0.0 0.0 0.00 0.00 0.00 99 1018.0
20260508051515 65 317 0.0 0.0 0.00 0.00 0.00 99 1018.1
20260508051009 65 317 0.0 0.0 0.00 0.00 0.00 99 1017.9
20260508050501 65 320 0.0 0.0 0.00 0.00 0.00 99 1018.1
20260508045957 66 313 0.0 0.0 0.00 0.00 0.00 99 1018.2
20260508045454 66 313 0.0 0.0 0.00 0.00 0.00 99 1018.3
20260508044952 66 313 0.0 0.0 0.00 0.00 0.00 99 1018.4
20260508044449 66 313 0.0 0.0 0.00 0.00 0.00 99 1018.5
20260508043944 67 313 0.0 0.0 0.00 0.00 0.00 99 1018.4
20260508043442 67 313 0.0 0.0 0.00 0.00 0.00 99 1018.6
20260508042937 67 313 0.0 0.0 0.00 0.00 0.00 99 1018.5
20260508042436 67 313 0.0 0.0 0.00 0.00 0.00 99 1018.6
20260508041932 68 313 0.0 0.0 0.00 0.00 0.00 99 1018.9
20260508041429 68 313 0.0 0.0 0.00 0.00 0.00 99 1018.9
20260508040926 68 313 0.0 0.0 0.00 0.00 0.00 99 1018.6
20260508040423 68 313 0.0 0.0 0.00 0.00 0.00 99 1018.9
20260508035921 68 313 0.0 0.0 0.00 0.17 0.17 99 1018.7
20260508035417 68 313 0.0 0.0 0.00 0.17 0.17 99 1019.0
20260508034914 68 313 0.0 0.0 0.00 0.17 0.17 99 1018.9
20260508034412 68 315 0.0 0.0 0.00 0.17 0.17 99 1018.7
20260508033908 68 315 0.0 0.0 0.00 0.17 0.17 99 1018.7
20260508033406 68 315 0.0 1.0 0.00 0.17 0.17 99 1019.1
20260508032903 68 317 0.0 0.0 0.00 0.17 0.17 99 1018.7
20260508032401 68 309 0.0 0.0 0.00 0.17 0.17 99 1018.6
20260508031857 68 307 0.0 0.0 0.00 0.17 0.17 99 1018.9
20260508031354 68 307 0.0 0.0 0.00 0.17 0.17 99 1019.0
20260508030850 68 307 0.0 0.0 0.00 0.17 0.17 99 1018.9
20260508030348 68 307 0.0 0.0 0.00 0.17 0.17 99 1019.1
20260508025844 68 307 0.0 0.0 0.00 0.17 0.17 99 1019.1
20260508025341 68 307 0.0 0.0 0.00 0.17 0.17 99 1019.0
20260508024838 68 307 0.0 0.0 0.00 0.17 0.17 99 1019.3
20260508024335 68 307 0.0 0.0 0.00 0.17 0.17 99 1019.2
20260508023832 69 307 0.0 0.0 0.00 0.17 0.17 99 1019.1
20260508023328 68 307 0.0 0.0 0.00 0.17 0.17 99 1019.2
20260508022824 68 307 0.0 0.0 0.00 0.17 0.17 99 1019.3
20260508022315 69 307 0.0 0.0 0.00 0.17 0.17 99 1018.7
20260508021812 69 307 0.0 0.0 0.00 0.17 0.17 99 1019.3
20260508021308 69 307 0.0 0.0 0.00 0.17 0.17 99 1018.9
20260508020804 69 307 0.0 0.0 0.00 0.17 0.17 99 1019.1
20260508020302 69 307 0.0 0.0 0.00 0.17 0.17 99 1019.2
20260508015759 69 307 0.0 0.0 0.00 0.17 0.17 99 1019.3
20260508015256 69 307 0.0 0.0 0.00 0.17 0.17 99 1019.2
20260508014753 69 307 0.0 0.0 0.00 0.17 0.17 99 1019.0
20260508014250 69 307 0.0 0.0 0.00 0.17 0.17 99 1019.2
20260508013746 69 307 0.0 0.0 0.00 0.17 0.17 99 1019.2
20260508013242 69 307 0.0 0.0 0.07 0.17 0.17 99 1019.0
20260508012740 69 307 0.0 0.0 0.07 0.17 0.17 99 1018.9
20260508012237 69 307 0.0 0.0 0.00 0.16 0.16 99 1018.9
20260508011735 69 306 0.0 1.0 0.00 0.16 0.16 99 1018.9
20260508011232 69 307 0.0 1.0 0.00 0.16 0.16 99 1019.0
20260508010729 69 4 1.0 1.0 0.00 0.16 0.16 99 1018.6
20260508010227 69 304 0.0 0.0 0.00 0.16 0.16 99 1018.9
20260508005724 69 311 0.0 0.0 0.05 0.16 0.16 99 1019.0
20260508005220 69 300 0.0 0.0 0.24 0.16 0.16 99 1018.7
20260508004716 69 302 0.0 0.0 0.19 0.15 0.15 99 1018.6
20260508004212 69 289 1.0 1.0 0.07 0.13 0.13 99 1018.6
20260508003709 69 290 1.0 1.0 0.05 0.12 0.12 99 1018.5
20260508003207 69 324 1.0 1.0 0.12 0.12 0.12 99 1018.5
20260508002703 69 276 0.0 0.0 0.12 0.11 0.11 99 1018.6
20260508002201 69 276 0.0 0.0 0.24 0.10 0.10 99 1018.3
20260508001656 69 309 1.0 1.0 0.38 0.09 0.09 99 1018.3
20260508001152 70 24 0.0 1.0 0.19 0.06 0.06 99 1018.4
20260508000648 70 277 0.0 1.0 0.07 0.04 0.04 99 1018.2
20260508000145 70 279 0.0 1.0 0.00 0.03 0.03 99 1018.4
20260507235642 70 269 1.0 1.0 0.00 0.03 0.03 99 1018.3
20260507235139 70 287 1.0 1.0 0.00 0.03 0.03 99 1018.1
20260507234636 70 288 1.0 1.0 0.00 0.03 0.03 99 1018.1
20260507234132 70 258 1.0 1.0 0.00 0.03 0.03 98 1018.1
20260507233629 70 268 1.0 1.0 0.00 0.03 0.03 98 1018.0
20260507233128 70 284 0.0 0.0 0.00 0.03 0.03 98 1018.0
20260507232625 70 283 0.0 0.0 0.00 0.03 0.03 98 1018.0
20260507232121 70 282 1.0 1.0 0.00 0.03 0.03 98 1017.9
20260507231618 70 291 1.0 1.0 0.00 0.03 0.03 98 1017.8
20260507231115 71 279 1.0 2.0 0.00 0.03 0.03 98 1017.8
20260507230611 71 273 0.0 1.0 0.00 0.03 0.03 98 1017.7
20260507230108 70 271 1.0 1.0 0.00 0.03 0.03 97 1017.6
20260507225603 71 257 1.0 1.0 0.00 0.03 0.03 97 1017.6
20260507225100 71 269 0.0 0.0 0.00 0.03 0.03 96 1017.8
20260507224555 71 267 2.0 2.0 0.05 0.03 0.03 96 1017.6
20260507224052 72 275 0.0 1.0 0.12 0.03 0.03 95 1017.3
20260507223548 72 286 1.0 1.0 0.07 0.02 0.02 94 1017.3
20260507223046 73 280 1.0 1.0 0.07 0.02 0.02 94 1017.5
20260507222543 73 287 1.0 1.0 0.00 0.01 0.01 93 1017.4
20260507222039 73 298 0.0 0.0 0.00 0.01 0.01 92 1017.4
20260507221535 73 297 0.0 1.0 0.00 0.01 0.01 90 1017.2
20260507221032 73 96 2.0 2.0 0.00 0.01 0.01 90 1017.4
20260507220529 74 345 0.0 1.0 0.00 0.01 0.01 89 1017.2
20260507220027 75 254 0.0 0.0 0.00 0.01 0.01 90 1017.2
20260507215523 74 269 0.0 1.0 0.00 0.01 0.01 90 1017.0
20260507215021 75 271 0.0 1.0 0.00 0.01 0.01 89 1017.4
20260507214518 75 287 0.0 1.0 0.00 0.01 0.01 89 1017.2
20260507214014 75 266 1.0 1.0 0.00 0.01 0.01 88 1017.2
20260507213510 76 281 1.0 1.0 0.00 0.01 0.01 87 1016.9
20260507213007 76 302 0.0 0.0 0.00 0.01 0.01 81 1016.9
20260507212503 76 301 3.0 5.0 0.00 0.01 0.01 82 1016.9
20260507212000 77 288 1.0 1.0 0.00 0.01 0.01 84 1016.9
20260507211456 77 285 1.0 2.0 0.00 0.01 0.01 84 1016.9
20260507210953 77 269 1.0 1.0 0.00 0.01 0.01 80 1017.0
20260507210450 76 288 0.0 1.0 0.00 0.01 0.01 81 1016.7
20260507205947 76 309 0.0 0.0 0.00 0.01 0.01 82 1016.6
20260507205444 76 289 1.0 1.0 0.00 0.01 0.01 82 1017.0
20260507204940 76 297 1.0 1.0 0.00 0.01 0.01 83 1017.0
20260507204436 76 37 2.0 2.0 0.00 0.01 0.01 83 1016.6
20260507203934 76 349 1.0 1.0 0.00 0.01 0.01 83 1016.7
20260507203432 76 289 0.0 2.0 0.00 0.01 0.01 82 1017.0
20260507202928 78 19 1.0 1.0 0.00 0.01 0.01 81 1017.1
20260507202425 79 332 1.0 2.0 0.00 0.01 0.01 79 1017.0
20260507201920 79 87 3.0 3.0 0.00 0.01 0.01 79 1016.6
20260507201416 79 275 1.0 2.0 0.00 0.01 0.01 79 1016.6
20260507200913 77 18 1.0 1.0 0.00 0.01 0.01 82 1016.5
20260507200408 77 315 2.0 2.0 0.00 0.01 0.01 82 1017.0
20260507195904 76 302 1.0 1.0 0.00 0.01 0.01 83 1017.1
20260507195402 76 245 1.0 1.0 0.00 0.01 0.01 84 1017.3
20260507194859 77 26 2.0 2.0 0.00 0.01 0.01 83 1017.4
20260507194355 79 80 2.0 2.0 0.00 0.01 0.01 80 1017.2
20260507193852 77 284 1.0 1.0 0.00 0.01 0.01 84 1017.3
20260507193349 79 93 4.0 7.0 0.00 0.01 0.01 81 1017.1
20260507192845 78 325 1.0 1.0 0.00 0.01 0.01 82 1017.1
20260507192342 77 231 1.0 1.0 0.00 0.01 0.01 83 1017.2
20260507191838 78 294 1.0 1.0 0.00 0.01 0.01 82 1017.1
20260507191334 79 286 2.0 3.0 0.00 0.01 0.01 79 1017.2
20260507190831 79 273 2.0 5.0 0.00 0.01 0.01 80 1017.6
20260507190330 78 230 5.0 8.0 0.00 0.01 0.01 81 1017.2
20260507185828 79 56 3.0 5.0 0.00 0.01 0.01 81 1017.7
20260507185325 79 271 1.0 2.0 0.00 0.01 0.01 79 1017.5
20260507184822 81 13 1.0 2.0 0.00 0.01 0.01 78 1017.2
20260507184320 79 23 2.0 2.0 0.00 0.01 0.01 79 1017.2
20260507183816 78 14 1.0 1.0 0.00 0.01 0.01 80 1017.6
20260507183314 79 280 4.0 6.0 0.00 0.01 0.01 79 1017.5
20260507182811 80 171 2.0 2.0 0.00 0.01 0.01 77 1017.7